| time (UTC) | temp C | wind direction | speed KPH | gust KPH | rain 1hr cm | rain 24hr cm | rain mn cm | humidity % | barometer mb |
| 20260831022030 | 16 | 156 | 3.2 | 9.7 | 0.00 | 0.00 | 0.15 | 90 | 1007.6 |
| 20260831021030 | 16 | 186 | 4.8 | 11.3 | 0.00 | 0.00 | 0.15 | 90 | 1007.7 |
| 20260831020030 | 16 | 190 | 4.8 | 9.7 | 0.00 | 0.00 | 0.15 | 90 | 1007.8 |
| 20260831015030 | 16 | 183 | 4.8 | 11.3 | 0.00 | 0.00 | 0.15 | 90 | 1007.9 |
| 20260831014030 | 16 | 196 | 3.2 | 11.3 | 0.00 | 0.00 | 0.15 | 90 | 1007.7 |
| 20260831013030 | 16 | 193 | 3.2 | 8.0 | 0.00 | 0.00 | 0.15 | 90 | 1007.6 |
| 20260831012029 | 16 | 140 | 3.2 | 8.0 | 0.00 | 0.00 | 0.15 | 90 | 1007.6 |
| 20260831011029 | 16 | 120 | 3.2 | 8.0 | 0.00 | 0.00 | 0.15 | 90 | 1007.5 |
| 20260831010030 | 16 | 156 | 3.2 | 9.7 | 0.00 | 0.00 | 0.15 | 90 | 1007.8 |
| 20260831005030 | 16 | 136 | 1.6 | 8.0 | 0.00 | 0.00 | 0.15 | 90 | 1007.9 |
| 20260831004029 | 16 | 183 | 3.2 | 8.0 | 0.00 | 0.00 | 0.15 | 90 | 1008.1 |
| 20260831003030 | 16 | 139 | 3.2 | 11.3 | 0.00 | 0.00 | 0.15 | 90 | 1008.1 |
| 20260831002030 | 16 | 136 | 3.2 | 9.7 | 0.00 | 0.00 | 0.15 | 90 | 1008.1 |
| 20260831001030 | 16 | 121 | 3.2 | 9.7 | 0.00 | 0.00 | 0.15 | 90 | 1008.2 |
| 20260831000030 | 17 | 103 | 3.2 | 11.3 | 0.00 | 0.00 | 0.15 | 90 | 1008.1 |
| 20260830235030 | 17 | 137 | 3.2 | 9.7 | 0.00 | 0.00 | 0.15 | 89 | 1008.2 |
| 20260830234030 | 17 | 119 | 3.2 | 9.7 | 0.00 | 0.00 | 0.15 | 90 | 1008.3 |
| 20260830233030 | 17 | 106 | 3.2 | 6.4 | 0.00 | 0.00 | 0.15 | 89 | 1008.4 |
| 20260830232030 | 17 | 153 | 0.0 | 3.2 | 0.00 | 0.00 | 0.15 | 89 | 1008.4 |
| 20260830231030 | 17 | 172 | 3.2 | 8.0 | 0.00 | 0.00 | 0.15 | 89 | 1008.5 |
| 20260830230030 | 17 | 151 | 1.6 | 6.4 | 0.00 | 0.00 | 0.15 | 89 | 1008.5 |
| 20260830225030 | 17 | 197 | 6.4 | 11.3 | 0.00 | 0.00 | 0.15 | 89 | 1008.7 |
| 20260830224030 | 17 | 216 | 9.7 | 16.1 | 0.00 | 0.00 | 0.15 | 89 | 1008.8 |
| 20260830223030 | 17 | 229 | 11.3 | 20.9 | 0.00 | 0.00 | 0.15 | 88 | 1008.9 |
| 20260830222030 | 17 | 199 | 4.8 | 12.9 | 0.00 | 0.00 | 0.05 | 87 | 1009.0 |
| 20260830221030 | 17 | 98 | 3.2 | 11.3 | 0.00 | 0.00 | 0.00 | 87 | 1008.9 |
| 20260830220030 | 17 | 102 | 3.2 | 9.7 | 0.00 | 0.00 | 1.27 | 87 | 1008.9 |
| 20260830215030 | 17 | 113 | 1.6 | 9.7 | 0.00 | 0.00 | 1.27 | 87 | 1009.0 |
| 20260830214030 | 17 | 118 | 3.2 | 16.1 | 0.00 | 0.00 | 1.27 | 87 | 1009.1 |
| 20260830213030 | 17 | 151 | 1.6 | 16.1 | 0.00 | 0.00 | 1.27 | 87 | 1009.1 |
| 20260830212029 | 17 | 108 | 3.2 | 14.5 | 0.00 | 0.00 | 1.27 | 87 | 1009.2 |
| 20260830211030 | 17 | 131 | 3.2 | 12.9 | 0.00 | 0.00 | 1.27 | 86 | 1009.2 |
| 20260830210030 | 17 | 139 | 4.8 | 12.9 | 0.00 | 0.00 | 1.27 | 86 | 1009.3 |
| 20260830205030 | 18 | 129 | 3.2 | 12.9 | 0.00 | 0.00 | 1.27 | 85 | 1009.3 |
| 20260830204030 | 18 | 139 | 3.2 | 11.3 | 0.00 | 0.00 | 1.27 | 85 | 1009.5 |
| 20260830203030 | 18 | 136 | 3.2 | 11.3 | 0.00 | 0.00 | 1.27 | 85 | 1009.6 |
| 20260830202030 | 18 | 139 | 0.0 | 9.7 | 0.00 | 0.00 | 1.27 | 84 | 1009.7 |
| 20260830201030 | 18 | 101 | 0.0 | 1.6 | 0.00 | 0.00 | 1.27 | 84 | 1009.8 |
| 20260830200030 | 18 | 180 | 0.0 | 0.0 | 0.00 | 0.00 | 1.27 | 83 | 1009.9 |
| 20260830195030 | 18 | 180 | 0.0 | 0.0 | 0.00 | 0.00 | 1.27 | 83 | 1009.9 |
| 20260830194029 | 18 | 180 | 0.0 | 0.0 | 0.00 | 0.00 | 1.27 | 82 | 1010.1 |
| 20260830193030 | 18 | 180 | 0.0 | 0.0 | 0.00 | 0.00 | 1.27 | 82 | 1010.1 |
| 20260830192030 | 18 | 180 | 0.0 | 0.0 | 0.00 | 0.00 | 1.27 | 81 | 1010.2 |
| 20260830191031 | 18 | 129 | 0.0 | 1.6 | 0.00 | 0.00 | 1.27 | 81 | 1010.2 |
| 20260830190029 | 18 | 112 | 1.6 | 6.4 | 0.00 | 0.00 | 1.27 | 81 | 1010.1 |
| 20260830185029 | 19 | 119 | 1.6 | 4.8 | 0.00 | 0.00 | 1.27 | 81 | 1010.1 |
| 20260830184029 | 19 | 149 | 1.6 | 4.8 | 0.00 | 0.00 | 1.27 | 81 | 1010.2 |
| 20260830183030 | 19 | 163 | 1.6 | 4.8 | 0.00 | 0.00 | 1.27 | 82 | 1010.4 |
| 20260830182030 | 19 | 198 | 1.6 | 6.4 | 0.00 | 0.00 | 1.27 | 82 | 1010.5 |
| 20260830181030 | 19 | 179 | 1.6 | 4.8 | 0.00 | 0.00 | 1.27 | 83 | 1010.2 |
| 20260830180030 | 19 | 188 | 3.2 | 6.4 | 0.00 | 0.00 | 1.27 | 83 | 1010.2 |
| 20260830175030 | 20 | 196 | 4.8 | 8.0 | 0.00 | 0.00 | 1.27 | 83 | 1010.2 |
| 20260830174030 | 20 | 196 | 4.8 | 8.0 | 0.00 | 0.00 | 1.27 | 83 | 1010.4 |
| 20260830173030 | 20 | 205 | 8.0 | 14.5 | 0.00 | 0.00 | 1.27 | 83 | 1010.4 |
| 20260830172030 | 20 | 209 | 8.0 | 14.5 | 0.00 | 0.00 | 1.27 | 83 | 1010.5 |
| 20260830171030 | 20 | 206 | 6.4 | 12.9 | 0.00 | 0.00 | 1.27 | 83 | 1010.5 |
| 20260830170030 | 20 | 216 | 9.7 | 19.3 | 0.00 | 0.00 | 1.27 | 83 | 1010.5 |
| 20260830165030 | 20 | 226 | 11.3 | 19.3 | 0.00 | 0.00 | 1.27 | 83 | 1010.6 |
| 20260830164029 | 20 | 220 | 11.3 | 19.3 | 0.00 | 0.00 | 1.27 | 83 | 1010.6 |
| 20260830163030 | 20 | 225 | 14.5 | 22.5 | 0.00 | 0.00 | 1.27 | 83 | 1010.6 |
| 20260830162030 | 20 | 235 | 17.7 | 24.1 | 0.00 | 0.00 | 1.27 | 84 | 1010.5 |
| 20260830161030 | 20 | 225 | 19.3 | 27.4 | 0.00 | 0.00 | 1.27 | 84 | 1010.5 |
| 20260830160030 | 20 | 232 | 20.9 | 27.4 | 0.00 | 0.00 | 1.27 | 83 | 1010.5 |
| 20260830155030 | 20 | 235 | 20.9 | 27.4 | 0.00 | 0.00 | 1.27 | 83 | 1010.5 |
| 20260830154030 | 20 | 220 | 20.9 | 29.0 | 0.00 | 0.00 | 1.27 | 82 | 1010.5 |
| 20260830153030 | 20 | 229 | 17.7 | 27.4 | 0.00 | 0.00 | 1.27 | 82 | 1010.6 |
| 20260830152030 | 20 | 217 | 19.3 | 29.0 | 0.00 | 0.00 | 1.27 | 82 | 1010.7 |
| 20260830151030 | 20 | 232 | 17.7 | 27.4 | 0.00 | 0.00 | 1.27 | 83 | 1010.8 |
| 20260830150030 | 19 | 223 | 17.7 | 27.4 | 0.00 | 0.00 | 1.27 | 83 | 1010.7 |
| 20260830145030 | 19 | 231 | 19.3 | 29.0 | 0.00 | 0.00 | 1.27 | 85 | 1010.7 |
| 20260830144030 | 19 | 227 | 19.3 | 27.4 | 0.00 | 0.00 | 1.27 | 86 | 1010.7 |
| 20260830143030 | 19 | 237 | 19.3 | 30.6 | 0.00 | 0.00 | 1.27 | 87 | 1010.6 |
| 20260830142030 | 18 | 228 | 19.3 | 33.8 | 0.00 | 0.00 | 1.27 | 87 | 1010.6 |
| 20260830141030 | 18 | 233 | 20.9 | 30.6 | 0.00 | 0.00 | 1.27 | 89 | 1010.5 |
| 20260830140029 | 18 | 230 | 20.9 | 32.2 | 0.00 | 0.00 | 1.27 | 90 | 1010.6 |
| 20260830135029 | 18 | 218 | 19.3 | 30.6 | 0.00 | 0.00 | 1.27 | 90 | 1010.6 |
| 20260830134030 | 18 | 231 | 17.7 | 32.2 | 0.00 | 0.00 | 1.27 | 89 | 1010.6 |
| 20260830133030 | 18 | 227 | 19.3 | 35.4 | 0.00 | 0.00 | 1.27 | 89 | 1010.6 |
| 20260830132030 | 19 | 215 | 16.1 | 32.2 | 0.00 | 0.00 | 1.27 | 90 | 1010.4 |
| 20260830131030 | 19 | 225 | 19.3 | 27.4 | 0.00 | 0.00 | 1.27 | 90 | 1010.3 |
| 20260830130030 | 18 | 221 | 16.1 | 24.1 | 0.00 | 0.00 | 1.27 | 91 | 1010.2 |
| 20260830125030 | 18 | 236 | 16.1 | 24.1 | 0.00 | 0.00 | 1.27 | 91 | 1010.2 |
| 20260830123030 | 18 | 214 | 16.1 | 22.5 | 0.00 | 0.00 | 1.27 | 93 | 1010.1 |
| 20260830122030 | 18 | 216 | 14.5 | 20.9 | 0.00 | 0.00 | 1.27 | 93 | 1010.1 |
| 20260830121030 | 18 | 230 | 14.5 | 22.5 | 0.00 | 0.00 | 1.27 | 94 | 1010.0 |
| 20260830120030 | 18 | 224 | 14.5 | 22.5 | 0.00 | 0.00 | 1.27 | 95 | 1010.0 |
| 20260830115030 | 18 | 237 | 14.5 | 20.9 | 0.00 | 0.00 | 1.27 | 95 | 1010.0 |
| 20260830114030 | 18 | 233 | 12.9 | 17.7 | 0.00 | 0.00 | 1.27 | 95 | 1009.8 |
| 20260830113030 | 17 | 249 | 14.5 | 17.7 | 0.00 | 0.00 | 1.27 | 95 | 1009.6 |
| 20260830112030 | 17 | 256 | 14.5 | 17.7 | 0.00 | 0.00 | 1.27 | 95 | 1009.5 |
| 20260830111030 | 17 | 252 | 12.9 | 17.7 | 0.00 | 0.00 | 1.27 | 95 | 1009.4 |
| 20260830110030 | 17 | 245 | 14.5 | 17.7 | 0.00 | 0.00 | 1.27 | 95 | 1009.3 |
| 20260830105030 | 17 | 260 | 14.5 | 17.7 | 0.00 | 0.00 | 1.27 | 95 | 1009.3 |
| 20260830104030 | 17 | 255 | 14.5 | 19.3 | 0.00 | 0.00 | 1.27 | 95 | 1009.2 |
| 20260830103030 | 17 | 245 | 11.3 | 19.3 | 0.00 | 0.00 | 1.27 | 95 | 1009.2 |
| 20260830102030 | 17 | 254 | 11.3 | 16.1 | 0.00 | 0.00 | 1.27 | 95 | 1009.1 |
| 20260830101030 | 17 | 254 | 14.5 | 19.3 | 0.00 | 0.00 | 1.27 | 95 | 1008.9 |
| 20260830100030 | 17 | 247 | 14.5 | 19.3 | 0.00 | 0.00 | 1.27 | 95 | 1008.8 |
| 20260830095029 | 17 | 253 | 17.7 | 24.1 | 0.00 | 0.00 | 1.27 | 95 | 1008.8 |
| 20260830094030 | 17 | 249 | 16.1 | 20.9 | 0.00 | 0.00 | 1.27 | 95 | 1008.7 |
| 20260830093030 | 17 | 244 | 16.1 | 20.9 | 0.00 | 0.00 | 1.24 | 95 | 1008.5 |
| 20260830092030 | 17 | 247 | 17.7 | 24.1 | 0.00 | 0.00 | 1.24 | 95 | 1008.5 |
| 20260830091030 | 17 | 261 | 19.3 | 22.5 | 0.00 | 0.00 | 1.24 | 95 | 1008.3 |
| 20260830090030 | 17 | 253 | 20.9 | 27.4 | 0.00 | 0.00 | 1.22 | 95 | 1008.2 |
| 20260830085029 | 17 | 246 | 17.7 | 22.5 | 0.00 | 0.00 | 1.22 | 95 | 1008.1 |
| 20260830084030 | 17 | 231 | 16.1 | 22.5 | 0.00 | 0.00 | 1.22 | 95 | 1008.1 |
| 20260830083030 | 17 | 221 | 16.1 | 24.1 | 0.00 | 0.00 | 1.17 | 95 | 1008.0 |
| 20260830082030 | 17 | 247 | 16.1 | 20.9 | 0.00 | 0.00 | 1.14 | 95 | 1007.8 |
| 20260830081029 | 17 | 238 | 19.3 | 24.1 | 0.00 | 0.00 | 1.14 | 95 | 1007.8 |
| 20260830080030 | 17 | 224 | 16.1 | 25.7 | 0.00 | 0.00 | 1.14 | 95 | 1007.6 |
| 20260830075030 | 17 | 218 | 12.9 | 24.1 | 0.00 | 0.00 | 1.14 | 95 | 1007.5 |
| 20260830074030 | 17 | 218 | 12.9 | 27.4 | 0.00 | 0.00 | 1.09 | 95 | 1007.5 |
| 20260830073030 | 17 | 211 | 16.1 | 29.0 | 0.00 | 0.00 | 1.07 | 94 | 1007.3 |
| 20260830072030 | 17 | 216 | 12.9 | 27.4 | 0.00 | 0.00 | 1.04 | 94 | 1007.2 |
| 20260830071030 | 17 | 211 | 14.5 | 25.7 | 0.00 | 0.00 | 1.04 | 94 | 1007.0 |
| 20260830070030 | 17 | 218 | 16.1 | 25.7 | 0.00 | 0.00 | 1.04 | 94 | 1007.0 |
| 20260830065030 | 17 | 203 | 12.9 | 24.1 | 0.00 | 0.00 | 1.02 | 94 | 1006.9 |
| 20260830064030 | 17 | 215 | 12.9 | 20.9 | 0.00 | 0.00 | 1.02 | 94 | 1006.7 |
| 20260830063030 | 17 | 208 | 14.5 | 24.1 | 0.00 | 0.00 | 1.02 | 94 | 1006.5 |
| 20260830062030 | 17 | 201 | 16.1 | 25.7 | 0.00 | 0.00 | 1.02 | 94 | 1006.4 |
| 20260830061030 | 17 | 211 | 14.5 | 27.4 | 0.00 | 0.00 | 1.02 | 94 | 1006.3 |
| 20260830060030 | 17 | 212 | 14.5 | 25.7 | 0.00 | 0.00 | 1.02 | 94 | 1006.2 |
| 20260830055029 | 17 | 201 | 14.5 | 27.4 | 0.00 | 0.00 | 1.02 | 94 | 1006.0 |
| 20260830054030 | 17 | 210 | 16.1 | 30.6 | 0.00 | 0.00 | 1.02 | 94 | 1005.8 |
| 20260830053031 | 17 | 203 | 17.7 | 32.2 | 0.00 | 0.00 | 0.99 | 94 | 1005.7 |
| 20260830052030 | 17 | 212 | 14.5 | 29.0 | 0.00 | 0.00 | 0.97 | 94 | 1005.5 |
| 20260830051030 | 17 | 200 | 14.5 | 30.6 | 0.00 | 0.00 | 0.89 | 94 | 1005.4 |
| 20260830050029 | 17 | 200 | 16.1 | 29.0 | 0.00 | 0.00 | 0.89 | 94 | 1005.4 |
| 20260830045030 | 17 | 196 | 17.7 | 37.0 | 0.00 | 0.00 | 0.89 | 94 | 1005.2 |
| 20260830044031 | 17 | 205 | 17.7 | 33.8 | 0.00 | 0.00 | 0.89 | 94 | 1005.0 |
| 20260830043030 | 17 | 201 | 16.1 | 30.6 | 0.00 | 0.00 | 0.86 | 93 | 1004.9 |
| 20260830042030 | 17 | 201 | 20.9 | 33.8 | 0.00 | 0.00 | 0.86 | 93 | 1004.9 |
| 20260830041030 | 17 | 205 | 19.3 | 37.0 | 0.00 | 0.00 | 0.86 | 93 | 1004.8 |
| 20260830040029 | 17 | 197 | 19.3 | 37.0 | 0.00 | 0.00 | 0.86 | 93 | 1004.7 |
| 20260830035029 | 17 | 203 | 20.9 | 41.8 | 0.00 | 0.00 | 0.86 | 93 | 1004.6 |
| 20260830034030 | 17 | 206 | 22.5 | 40.2 | 0.00 | 0.00 | 0.86 | 94 | 1004.4 |
| 20260830033030 | 17 | 209 | 19.3 | 33.8 | 0.00 | 0.00 | 0.86 | 93 | 1004.3 |
| 20260830032030 | 17 | 220 | 19.3 | 38.6 | 0.00 | 0.00 | 0.84 | 93 | 1004.1 |
| 20260830031030 | 18 | 227 | 17.7 | 33.8 | 0.00 | 0.00 | 0.79 | 93 | 1004.3 |
| 20260830030029 | 18 | 211 | 17.7 | 35.4 | 0.00 | 0.00 | 0.64 | 93 | 1004.3 |
| 20260830025029 | 18 | 215 | 16.1 | 30.6 | 0.00 | 0.00 | 0.51 | 92 | 1004.2 |
| 20260830024030 | 18 | 209 | 19.3 | 32.2 | 0.00 | 0.00 | 0.33 | 92 | 1004.1 |
| 20260830023030 | 18 | 204 | 19.3 | 33.8 | 0.00 | 0.00 | 0.28 | 92 | 1004.0 |